CAPE
2052 2049 2301 2174 2044 1931 1660 1282 1493 1480 1588 1524 1624 1708 1576 1251 1250 1354 1247 1113 1002 1098 1127 1153 945 914 989 872 975 1028 528 767 993 814 971 1071 1107 958 1098 1135 1217 1377 1405 1486 1476 1138 1057 990 1115 902 1127 1171 1078 1070 924 719 662 1064 1399 1081 1103 955 840 676 816 708 454 380 628 594 653 935 913 1161 1301 981 908 1018 1059 1132 942 884 951 1027 808
2003 2269 2235 2216 2071 2140 1703 1420 1531 1585 1612 1586 1778 1743 1533 1436 1373 1341 1318 1270 1244 1304 1148 1425 1390 1162 1271 1030 903 721 612 873 1016 829 774 986 1066 1211 1505 1095 1288 1495 1579 1363 1216 894 1068 999 927 769 918 1155 930 878 991 936 994 1171 1190 1143 1212 1277 1259 1126 1099 855 514 397 577 483 361 608 990 1123 718 627 848 761 691 897 946 944 963 794 810
1611 1975 2164 2175 2165 1463 1502 1670 1700 1699 1709 1868 1658 1418 1200 1516 1508 1479 1530 1404 1573 1610 1480 1872 2077 1997 1828 1190 765 479 494 574 253 251 489 632 1323 1302 1308 1420 1257 1114 1351 1562 1075 1399 1218 1202 826 804 887 1178 935 875 1080 1212 1223 1206 1261 1262 1342 1216 1110 682 668 1040 523 670 798 570 540 458 790 1078 1032 759 617 363 766 826 751 804 908 1123 779
1378 1603 2041 2145 2287 1706 1695 1782 1972 1789 1797 1561 1511 1598 1100 1199 1648 1687 1665 1547 1508 1583 1654 1645 1981 1357 1290 1801 1212 1207 746 786 711 722 658 693 881 1152 1266 1246 1106 929 1018 866 1229 1337 993 1242 1169 1179 938 1150 1434 1249 1179 1059 944 1168 1197 1293 1142 930 818 870 995 910 577 437 541 511 547 738 535 418 1031 676 777 463 768 848 636 700 900 701 1374
1502 2052 2349 2233 2130 1652 1816 1804 2258 1812 1554 1429 1200 1160 1220 1403 1736 1735 1530 1464 1549 1383 1260 1364 1266 1143 971 651 571 579 830 697 551 383 571 623 799 942 1055 1116 747 367 461 692 969 1311 950 909 1261 912 1314 1471 1355 1400 1280 1135 1174 1239 1304 1315 935 929 626 458 441 770 861 1159 699 347 409 458 586 624 662 641 1014 762 830 528 356 628 849 787 1007
975 1338 1926 2132 2135 2055 1949 1981 1865 1665 1290 1112 1011 898 1134 1459 1751 1610 1508 1477 1362 1162 1095 1010 784 549 707 948 950 938 943 998 870 383 123 443 518 835 792 853 473 943 763 634 651 567 966 1374 1440 1262 1123 1481 1355 1502 1368 1105 1113 1148 1120 1115 966 977 677 421 506 796 994 1189 1188 1695 1372 591 647 551 596 319 902 1125 284 630 358 483 350 326 231
1263 1132 1144 1568 2039 1865 1846 1535 1463 1214 912 599 713 882 1228 1358 1411 1521 1427 1301 1070 983 987 950 662 620 949 1085 1187 1362 1341 1369 641 762 728 48 505 1171 853 798 539 819 790 861 872 820 924 807 684 1106 1066 1060 1180 1336 1291 1330 1079 1109 1368 920 1038 975 754 634 593 595 794 1239 1241 1261 1040 796 612 458 540 238 94 193 362 0 0 2 78 92 0
1426 1155 1241 1831 1436 1161 1224 990 1254 1177 726 850 1033 1168 1270 1160 1132 1040 1118 1032 725 770 694 599 593 541 620 1472 1459 1468 1653 1091 1120 754 503 515 522 520 905 956 666 368 863 631 827 636 794 887 709 680 815 624 610 823 1354 1425 1350 917 1332 1241 1061 881 926 689 254 666 690 1108 1167 1184 1179 833 813 972 534 727 54 16 1 0 0 0 2 1 0
1449 1294 1384 1227 1231 818 783 873 1171 999 850 778 962 1231 1203 1022 853 891 972 754 570 674 869 788 478 402 284 352 1224 1039 934 1100 513 189 387 460 372 464 866 624 824 920 315 220 430 402 577 584 761 696 592 734 402 540 887 911 1064 1283 1151 1457 1875 1570 1172 545 635 872 650 884 705 771 821 883 940 985 1054 1004 653 0 0 1 4 4 2 1 0
1078 1347 893 1041 1337 1154 604 397 686 1395 871 806 1012 1132 1083 768 781 947 832 625 780 885 945 666 261 378 382 152 889 902 1062 653 336 522 446 484 749 818 576 620 349 343 890 659 702 331 586 724 570 516 663 271 412 664 911 1504 1422 1318 1496 1512 1565 1367 1602 794 869 622 632 837 585 748 616 554 543 582 783 698 267 494 25 0 4 6 1 0 0
1137 923 829 853 1109 1396 881 658 577 662 874 890 922 945 935 745 708 594 588 595 739 686 580 280 204 423 389 109 883 944 1117 927 565 423 464 548 459 406 794 689 668 579 447 771 290 121 535 637 602 402 454 662 442 362 516 514 929 1273 1464 1479 1212 1296 1134 968 907 756 481 559 697 578 348 396 283 405 531 578 605 431 0 1 0 0 0 0 0
926 888 835 781 940 730 717 517 489 594 905 880 940 1044 956 766 698 579 647 719 761 579 414 396 317 217 236 230 994 1170 966 822 592 559 506 468 575 846 866 936 499 560 806 538 374 176 585 608 512 595 590 509 413 687 560 478 607 782 1152 1284 1330 891 1242 922 1031 1059 1046 692 681 580 438 277 326 434 570 882 527 449 24 4 2 0 0 0 0
900 703 1063 924 641 613 592 940 488 549 912 1006 798 1069 939 743 582 426 573 762 586 484 436 277 336 359 393 576 1415 1009 1026 774 776 698 590 576 691 571 289 499 283 523 750 343 168 172 185 878 725 692 557 373 458 60 58 276 454 504 612 847 878 839 1042 1052 1038 1165 935 943 732 616 421 468 551 782 454 541 547 202 124 0 0 0 0 0 0
931 874 914 836 583 769 952 1064 980 460 670 753 959 846 627 518 340 414 526 673 634 547 466 404 400 366 398 1138 1208 1161 1176 841 664 554 450 498 649 302 541 442 594 687 380 350 138 271 335 119 280 357 264 85 7 4 270 189 380 140 247 382 628 851 848 908 1132 1000 1074 954 904 651 644 566 291 376 420 135 130 204 133 17 0 0 0 0 0
1011 974 807 815 732 899 1101 1296 1354 1070 687 1006 1019 878 729 635 628 672 737 881 708 634 472 454 494 499 740 1147 921 1439 1080 778 670 593 516 542 344 266 783 346 579 450 252 217 152 169 310 413 325 155 0 0 0 7 119 80 31 5 72 416 362 341 541 673 699 481 288 232 163 255 66 223 190 178 135 45 92 102 156 28 0 0 0 0 0
915 1232 1028 1095 919 964 1343 1346 1297 975 1179 1225 979 944 791 727 750 923 977 883 731 641 646 627 728 976 1392 960 942 1131 932 884 642 549 682 790 385 689 286 676 476 176 71 43 205 302 102 18 0 0 10 0 0 3 47 0 12 25 1 19 11 122 320 86 0 0 0 0 0 1 0 0 0 0 0 0 16 64 95 5 0 0 6 9 1
1581 1499 1102 1131 1092 1222 1382 1322 1509 1069 920 688 934 900 912 879 984 1058 1096 971 952 953 977 1014 1240 1298 1034 1272 1297 1139 749 771 534 597 594 580 584 286 408 505 185 77 37 72 48 82 40 0 0 0 0 8 0 0 0 0 0 0 0 0 0 0 0 0 0 0 0 0 0 0 0 0 0 0 0 0 5 10 10 307 42 22 16 0 0
1392 1461 1431 1496 1074 1105 1181 1308 1326 1138 845 680 742 983 1217 1082 1063 1330 1264 1206 1093 1083 1253 1472 1506 1466 1236 1110 1089 1042 1226 721 541 394 308 404 267 290 395 248 101 41 25 8 10 0 0 0 0 0 0 0 0 0 0 0 0 0 0 0 0 0 0 0 0 0 10 27 8 1 1 3 4 0 3 0 0 0 0 0 8 6 6 14 2
1464 1437 1292 1283 977 855 1213 1326 1139 876 592 651 529 656 1174 1002 1196 1255 1273 1212 1168 1296 1428 1469 1197 1101 1039 836 848 692 857 660 482 232 242 273 142 132 134 261 54 1 11 12 0 0 0 0 0 0 0 0 0 0 0 0 0 0 0 0 0 0 0 0 0 0 1 14 7 1 5 10 67 62 52 42 31 104 50 0 2 0 15 26 0
1340 1246 1062 1059 1116 770 1003 1072 874 707 463 455 490 467 771 1179 1092 950 916 940 1124 1331 1374 1258 1199 1106 834 767 782 813 562 678 634 514 447 232 38 7 84 103 51 0 0 0 0 0 0 0 0 0 0 0 0 0 0 0 0 0 0 0 0 0 0 0 0 0 0 0 0 0 0 9 22 0 0 0 0 0 6 2 0 2 1 4 0
1020 870 900 870 1095 909 786 784 715 695 474 495 497 557 1059 1036 1065 902 944 913 1052 1161 1159 1222 1157 994 775 858 882 960 870 824 767 568 635 203 12 15 92 52 0 0 0 0 0 0 0 0 0 0 0 0 0 0 0 0 0 0 0 0 0 0 0 0 0 0 0 0 0 0 0 0 0 0 0 0 0 0 1 0 0 0 1 4 1
936 795 750 775 779 812 817 626 520 420 287 576 760 926 1276 912 1106 1157 1001 957 1060 948 917 917 1022 1045 1024 911 819 920 1021 742 777 590 654 218 2 14 125 0 0 0 0 0 0 0 0 0 0 0 0 0 0 0 0 0 0 0 0 0 0 0 0 0 0 0 0 0 3 0 0 3 5 1 2 0 0 0 0 0 0 0 0 0 0
994 883 782 727 677 621 626 587 331 123 225 788 671 606 774 986 1171 1157 983 1045 1185 1002 955 1084 1154 1153 1106 983 888 936 941 1012 970 810 688 65 24 47 51 82 35 0 0 0 0 0 0 0 0 0 0 0 0 0 0 0 0 0 0 0 0 0 0 0 0 0 0 0 0 0 0 0 2 2 0 0 0 0 1 0 0 0 0 0 0
880 1119 954 805 537 330 278 281 353 242 496 745 791 792 821 977 964 1149 1303 1132 1127 1299 1378 1568 1547 1570 1277 1071 923 902 931 807 1013 813 864 223 104 134 80 112 76 0 0 2 0 0 0 0 0 0 0 0 0 0 0 0 0 0 0 0 0 0 0 0 0 0 0 0 0 0 0 0 0 0 1 0 0 0 0 0 0 0 0 0 0
211 615 498 618 501 441 272 177 146 236 617 736 616 798 891 1056 1016 925 1091 1175 1236 1315 1314 1278 1466 1488 1381 1157 1076 1038 829 979 987 758 851 364 240 260 173 69 260 72 2 3 0 0 0 0 0 0 0 0 0 0 0 0 0 0 0 0 0 0 0 0 0 0 0 0 0 0 0 0 0 3 0 0 0 1 21 2 1 0 0 0 0
334 430 444 448 341 304 359 418 288 624 626 607 642 697 834 694 785 966 773 1089 1048 1241 1342 1389 1383 1455 1391 1383 1168 820 726 947 942 1120 1169 708 583 274 257 138 146 60 139 54 0 0 0 0 0 0 0 0 0 0 0 0 0 0 0 0 0 0 0 0 2 0 1 19 2 9 2 0 7 7 0 67 0 1 31 7 50 0 0 44 54
290 249 276 426 367 333 242 298 326 520 461 521 637 678 689 771 964 770 819 1001 1217 1248 834 924 1357 1340 1321 1316 1173 1042 1077 1064 979 1031 1256 1063 830 698 383 227 131 101 250 206 141 0 1 0 0 0 0 0 0 0 0 2 0 0 0 6 23 7 40 84 10 1 0 25 8 57 18 12 29 19 101 99 50 35 42 0 30 77 0 1 2
181 144 123 122 148 361 352 346 293 346 422 526 398 370 492 462 795 816 881 1182 1116 1198 1203 1225 1322 1372 1074 1148 1282 1154 827 794 946 967 1083 1061 1096 955 539 372 241 154 70 66 127 50 30 2 4 0 0 0 0 0 0 0 0 65 76 57 225 31 31 179 68 45 21 40 56 96 79 67 26 140 128 63 10 63 11 9 6 2 0 36 0
55 145 55 21 16 2 145 128 60 34 187 442 430 388 487 645 663 649 796 688 971 1051 944 1095 1136 1313 1315 1144 1029 1094 1112 841 1024 828 1112 1208 1128 1078 865 610 690 486 522 133 42 15 60 17 64 21 12 6 3 0 10 1 2 10 249 125 325 178 248 173 208 104 159 83 25 130 66 38 131 35 80 126 103 24 134 40 70 41 0 0 0
12 2 7 16 12 0 0 0 0 1 21 4 5 54 108 207 255 259 338 360 628 562 539 847 851 950 889 843 991 904 863 1043 1274 985 906 1128 999 994 871 691 784 510 483 329 333 193 95 150 114 128 87 231 100 190 62 0 3 34 156 236 345 359 276 286 260 232 300 218 429 177 64 68 0 0 0 0 0 0 0 0 0 0 0 0 0
1 0 0 0 0 0 0 0 0 0 0 0 0 0 3 82 63 98 270 289 197 269 226 299 511 614 686 906 999 1087 1053 1125 997 1207 1123 995 1042 996 1021 928 1079 1032 633 638 442 351 303 240 168 186 301 277 133 56 0 0 0 0 248 464 467 512 450 469 513 474 660 565 166 285 246 1 0 0 0 0 0 0 0 0 0 0 0 8 6
0 0 0 0 0 0 0 0 0 0 0 0 0 0 0 0 0 0 2 39 222 248 156 161 281 465 407 665 754 756 913 1096 1142 1074 1159 1060 1046 927 841 806 868 854 476 474 934 833 828 359 380 272 240 0 0 550 169 0 0 3 308 952 957 809 832 786 820 681 802 637 576 445 322 227 100 42 1 0 0 0 0 0 0 0 0 0 0
0 0 0 0 0 0 0 0 0 0 0 0 0 0 0 0 0 4 0 0 0 40 111 196 82 60 123 507 247 446 895 952 900 925 891 1075 937 688 728 869 822 675 721 650 884 1166 684 557 421 421 16 263 27 328 381 547 118 365 479 704 1077 952 938 942 876 862 559 406 632 493 365 241 344 101 47 37 0 0 0 0 0 0 0 0 0
0 0 0 0 7 0 0 0 0 0 0 0 0 0 0 0 0 0 0 1 0 1 5 0 0 0 0 4 70 113 312 620 1029 937 1140 1082 1126 1078 1156 945 680 882 885 850 974 943 637 599 558 449 404 329 162 378 124 205 479 512 511 581 808 1012 1038 934 1005 781 583 415 443 478 142 395 388 218 226 212 55 0 0 0 0 0 0 0 50
27 41 54 88 74 28 4 0 0 0 0 0 0 0 0 0 0 0 0 0 0 0 0 0 0 0 0 0 0 0 0 1 116 377 790 918 1097 1246 1316 1172 902 866 921 1091 1003 854 951 750 711 603 545 522 348 370 455 484 551 620 580 552 675 723 772 721 578 200 210 350 269 64 42 217 439 19 6 91 116 0 0 0 0 0 0 100 131
46 121 157 138 55 82 39 24 20 9 11 4 1 0 0 0 0 0 0 0 0 0 0 0 0 0 0 0 0 0 0 0 0 38 185 321 623 1084 1096 1235 1163 1007 1027 1134 1145 959 834 778 841 751 504 394 393 525 492 441 604 597 478 490 582 612 498 441 370 222 253 437 285 197 337 589 396 102 37 51 2 0 0 71 6 0 112 86 69
18 38 26 1 3 8 0 0 0 0 0 0 0 0 0 0 0 0 0 0 0 0 0 0 0 0 0 0 0 0 0 0 0 4 5 37 149 419 683 853 1074 1150 1086 1066 986 852 819 925 823 757 685 584 540 630 617 444 515 687 581 450 346 318 155 74 153 66 340 450 434 559 417 391 436 217 178 62 2 3 0 0 0 0 0 11 75
0 0 0 0 0 0 0 0 0 0 2 0 0 0 0 0 0 0 0 0 0 0 0 0 0 0 0 0 0 0 0 0 0 0 0 36 84 102 151 315 510 715 826 825 776 942 1049 1020 898 717 548 618 511 454 512 583 577 509 656 694 628 526 367 219 62 147 106 253 61 433 242 275 374 87 133 10 164 149 144 73 0 0 0 0 0
0 0 0 0 0 0 0 0 0 0 0 0 0 0 2 2 5 5 2 0 0 0 0 0 0 0 0 0 0 0 0 0 0 0 0 1 10 26 28 43 158 226 289 422 360 403 531 783 946 785 680 740 738 694 565 532 547 560 558 598 600 558 350 248 197 132 4 16 33 103 67 212 189 63 39 5 114 127 131 12 0 0 0 0 0
0 0 0 0 0 0 0 0 0 0 0 0 0 0 0 2 0 2 0 0 0 0 0 0 0 0 0 0 0 0 0 0 0 0 0 0 0 0 0 1 1 3 31 107 174 205 318 354 618 843 747 732 674 675 687 582 365 369 497 595 608 561 352 258 182 56 100 18 0 0 0 73 17 37 77 138 150 115 16 4 4 2 0 0 0
0 0 0 0 0 0 1 1 2 1 0 0 4 2 2 2 0 0 0 0 0 0 0 0 0 0 0 0 0 0 0 0 0 0 0 0 0 0 0 0 0 0 5 45 122 128 90 229 550 944 632 582 636 633 615 590 502 521 596 601 564 509 341 260 148 50 27 32 45 16 5 37 64 96 65 49 0 0 0 0 0 0 0 0 0
0 0 0 0 0 0 0 0 0 0 0 1 0 0 0 0 0 0 0 0 0 0 0 0 0 0 0 0 0 0 0 0 0 0 0 0 0 0 0 0 0 0 1 18 70 60 31 24 265 641 948 628 585 617 564 606 640 640 638 567 454 405 230 233 26 74 30 52 3 1 1 0 0 0 0 0 0 0 0 0 0 0 0 0 0
0 0 0 0 0 0 0 0 0 0 0 0 0 0 0 0 0 0 0 0 0 0 0 0 0 0 0 0 0 0 0 0 0 0 0 0 0 0 0 0 0 0 0 0 24 73 71 34 212 889 788 570 470 438 661 634 572 508 545 496 280 207 252 0 0 3 26 19 27 12 0 0 0 0 0 0 0 0 0 0 0 0 0 0 0
0 0 0 0 0 0 0 0 0 0 0 0 0 0 0 0 0 0 0 0 0 0 0 0 0 0 0 0 0 0 0 0 0 0 0 0 0 0 0 0 0 0 0 0 8 30 53 42 89 460 434 359 420 295 421 494 500 507 499 434 275 148 0 0 6 2 0 0 0 0 0 0 0 0 0 0 0 0 0 0 0 0 0 0 0
0 0 0 0 0 0 0 0 0 0 0 0 0 0 0 0 0 0 0 0 0 0 0 0 0 0 0 0 0 0 0 0 0 0 0 0 0 0 0 0 0 0 0 0 0 7 21 29 84 278 410 254 233 126 157 380 488 542 490 337 145 32 2 3 24 2 0 1 0 0 0 0 0 0 0 0 0 0 0 0 0 0 0 0 0
0 0 0 0 0 0 0 0 0 0 0 0 0 0 0 0 0 0 0 0 0 0 0 0 0 0 0 0 0 0 0 0 0 0 0 0 0 0 0 0 0 0 0 0 0 0 4 11 38 158 351 235 223 199 250 234 303 334 266 256 230 6 8 15 2 0 0 0 0 0 0 0 0 0 0 0 0 0 0 0 0 0 0 0 0
0 0 0 0 0 0 0 0 0 0 0 0 0 0 0 0 0 0 0 0 0 0 0 0 0 0 0 0 0 0 0 0 0 0 0 0 0 0 0 0 0 0 0 0 0 1 4 10 17 222 270 220 183 211 200 204 226 226 0 0 0 0 0 21 0 0 0 0 0 0 0 0 0 0 0 0 0 0 0 0 0 0 0 0 0
0 0 0 0 0 0 0 0 0 0 0 0 0 0 0 0 0 0 0 0 0 0 0 0 0 0 0 0 0 0 0 0 0 0 0 0 0 0 0 0 0 0 0 0 0 0 5 13 31 157 295 184 83 136 37 0 96 0 0 0 0 0 0 0 0 0 0 0 0 0 0 0 0 0 0 0 0 0 0 0 0 0 0 0 0
0 0 0 0 0 0 0 0 0 0 0 0 0 2 1 2 2 0 0 0 0 0 1 0 2 2 1 1 0 0 1 1 0 0 0 0 0 0 0 0 0 4 0 0 0 0 43 235 184 145 161 86 39 41 42 0 0 0 0 80 26 0 0 0 0 24 0 0 0 0 0 0 0 0 0 0 0 0 0 0 0 0 0 0 0
0 0 0 0 0 0 0 1 1 2 2 1 3 2 0 0 0 1 1 1 1 1 0 0 0 0 1 0 0 0 1 1 0 0 0 0 0 0 0 0 0 0 0 0 0 0 11 39 70 53 62 82 63 15 0 0 0 0 0 32 60 31 169 120 118 124 106 0 0 0 0 0 0 0 0 0 0 0 0 0 0 0 0 0 0
0 0 0 1 1 3 3 2 0 1 2 1 1 1 2 2 0 1 1 0 0 2 2 2 2 1 1 0 1 1 2 3 3 1 0 0 0 0 0 0 0 0 0 0 0 0 0 0 119 40 0 0 0 0 0 0 0 7 39 4 82 290 250 219 161 108 36 3 7 7 1 0 0 0 0 0 0 0 0 0 0 0 0 0 0
Wind_Speed
20 16 14 14 16 15 20 21 24 26 21 24 26 27 30 29 29 27 24 24 24 21 21 20 19 18 19 17 16 16 18 16 14 13 11 12 11 13 13 13 12 15 14 16 14 14 14 15 13 11 10 12 12 12 13 13 10 9 10 11 11 11 10 10 10 12 15 11 6 1 6 9 9 9 11 13 15 14 15 15 12 13 13 12 13
21 15 14 13 16 15 22 22 24 26 23 26 26 27 30 31 30 28 25 25 24 22 22 21 19 21 20 18 19 21 20 16 15 16 15 12 10 10 11 13 14 14 16 16 14 13 13 14 12 9 9 10 11 11 11 11 11 11 11 12 11 11 11 11 11 11 13 10 10 6 6 9 9 9 9 10 13 14 15 14 10 12 12 14 12
20 15 14 15 16 18 22 20 21 25 27 27 29 30 31 31 31 28 26 26 25 24 25 24 22 23 23 21 22 22 17 16 16 16 13 12 10 11 11 13 13 15 14 18 16 15 15 13 11 10 8 9 10 11 11 11 10 10 12 12 14 12 12 12 10 7 12 14 13 11 7 9 10 9 9 13 15 13 13 16 14 11 11 11 9
22 18 17 16 15 18 19 19 21 26 28 29 31 32 32 29 31 29 28 28 27 26 29 29 26 25 24 20 23 21 20 19 18 16 15 13 11 11 11 10 11 14 16 18 17 16 14 12 11 10 8 7 9 10 11 12 12 11 12 13 15 13 11 13 11 8 11 16 13 11 9 8 11 10 10 11 11 14 13 15 15 13 11 7 8
23 21 19 15 15 17 18 21 26 29 32 34 28 30 31 30 31 31 28 28 27 30 31 28 28 29 17 24 26 23 18 17 16 16 15 12 12 11 11 11 12 12 9 12 16 16 18 15 13 12 7 7 6 8 9 11 12 12 13 15 15 14 12 13 13 11 10 10 14 13 12 10 10 12 11 10 9 12 11 18 13 13 14 12 13
24 19 14 13 15 19 21 28 31 35 39 40 32 36 34 30 32 30 27 28 29 31 31 28 27 30 19 26 22 18 16 13 15 16 14 12 13 12 12 12 11 9 10 11 11 11 12 16 15 16 13 9 8 8 9 10 11 13 13 15 16 14 16 12 13 12 10 10 11 11 11 11 13 12 12 12 10 11 13 12 12 15 16 15 16
28 17 9 10 18 23 32 35 39 42 41 37 32 30 28 23 24 26 26 27 28 30 30 25 27 29 17 18 15 14 13 13 15 13 14 nan 14 13 13 12 13 11 11 12 11 9 9 10 10 15 18 15 13 12 12 11 14 16 16 15 16 18 18 15 12 11 12 9 11 11 12 12 15 15 13 15 nan 12 14 nan nan nan nan nan nan
23 19 15 18 32 43 41 36 37 36 36 33 30 27 30 22 23 25 24 26 27 28 27 25 27 29 22 14 11 11 13 16 15 15 14 14 14 13 12 10 13 14 12 13 14 13 11 12 11 11 12 17 18 19 19 16 16 18 20 17 16 19 18 20 16 13 12 12 13 12 12 14 14 14 14 13 nan nan nan nan nan nan nan nan nan
22 21 28 42 47 44 41 31 26 31 30 30 25 25 25 25 25 25 25 26 26 26 25 26 32 33 24 14 8 15 14 14 15 14 13 13 12 9 10 11 12 11 14 13 14 15 16 15 13 14 12 14 20 19 18 18 18 20 20 19 16 19 21 19 20 17 16 15 16 12 11 14 14 14 13 14 15 nan nan nan nan nan nan nan nan
25 37 45 41 42 42 39 33 26 26 26 25 23 21 22 22 23 24 25 24 22 23 24 26 33 29 17 4 5 13 12 12 14 14 14 10 10 9 10 12 14 12 11 13 15 16 15 18 19 16 17 19 20 20 20 21 19 20 20 20 18 18 20 21 22 21 18 18 17 15 13 12 15 12 12 13 15 15 nan nan nan nan nan nan nan
27 42 43 38 36 37 36 36 34 27 23 21 20 17 19 21 22 22 23 21 20 21 23 24 24 21 16 12 7 12 11 14 16 14 12 11 11 10 11 13 14 16 14 13 16 18 19 18 20 20 19 17 18 19 19 20 22 22 19 19 19 20 20 21 23 23 20 17 17 16 13 11 13 11 11 12 13 14 nan nan nan nan nan nan nan
35 44 38 32 33 33 33 39 38 27 16 11 12 14 15 20 23 21 15 17 20 23 25 24 20 18 18 15 9 13 13 14 13 14 12 12 11 11 12 15 16 15 15 16 16 17 19 20 19 20 19 18 17 15 17 19 19 20 18 18 20 19 18 20 21 21 19 17 15 15 14 12 14 12 12 13 14 12 nan nan nan nan nan nan nan
40 33 26 21 28 31 37 38 32 25 13 3 9 17 17 18 20 24 20 18 22 25 29 29 24 23 22 18 16 17 14 13 14 14 13 14 13 14 14 15 15 14 15 16 15 17 18 19 20 19 17 14 14 nan nan 19 18 17 18 19 19 20 18 17 17 17 17 15 13 14 14 12 9 12 15 15 13 12 12 nan nan nan nan nan nan
33 25 18 20 29 31 36 35 29 25 22 17 14 18 21 23 23 26 25 22 24 24 24 26 25 24 23 22 25 22 19 16 15 15 15 16 14 14 14 15 14 13 14 15 15 16 17 17 17 17 18 nan nan nan 14 17 18 18 18 18 19 19 19 17 15 13 12 11 12 12 15 15 14 15 15 16 15 14 12 nan nan nan nan nan nan
28 25 21 27 30 30 30 28 26 24 25 24 20 19 23 25 24 26 26 23 21 23 23 22 18 19 20 24 26 22 21 18 17 17 17 18 17 14 14 13 14 13 14 13 13 16 17 17 17 18 nan nan nan nan 15 nan nan nan nan 18 19 18 18 15 14 13 12 12 11 10 nan 14 15 14 13 nan nan 15 14 nan nan nan nan nan nan
25 28 29 31 31 30 25 21 23 25 28 28 24 22 21 24 25 26 28 24 22 24 23 20 19 18 18 25 22 20 20 20 21 19 19 19 18 16 15 13 14 13 nan nan 14 15 16 nan nan nan nan nan nan nan nan nan nan nan nan nan nan 18 19 nan nan nan nan nan nan nan nan nan nan nan nan nan nan nan nan nan nan nan nan nan nan
29 28 28 31 30 26 21 17 20 27 27 30 27 19 18 21 24 26 26 26 23 23 23 20 18 19 20 22 21 21 21 21 24 22 22 21 21 19 15 15 15 nan nan nan nan nan nan nan nan nan nan nan nan nan nan nan nan nan nan nan nan nan nan nan nan nan nan nan nan nan nan nan nan nan nan nan nan nan nan 13 nan nan nan nan nan
32 30 29 27 26 24 21 20 21 28 29 30 29 20 19 19 22 25 25 27 25 25 25 22 20 19 21 22 23 23 21 25 27 25 23 23 23 20 18 17 15 nan nan nan nan nan nan nan nan nan nan nan nan nan nan nan nan nan nan nan nan nan nan nan nan nan nan nan nan nan nan nan nan nan nan nan nan nan nan nan nan nan nan nan nan
31 31 27 25 28 28 21 18 23 30 31 29 25 21 28 23 20 23 26 26 25 23 24 25 25 23 23 23 24 25 23 27 28 26 23 23 24 22 18 17 nan nan nan nan nan nan nan nan nan nan nan nan nan nan nan nan nan nan nan nan nan nan nan nan nan nan nan nan nan nan nan nan nan nan nan nan nan 10 nan nan nan nan nan nan nan
29 28 26 26 28 27 24 24 30 31 31 32 32 26 27 26 26 25 25 26 25 25 25 27 26 25 24 23 24 25 24 29 28 27 25 23 nan nan nan 18 nan nan nan nan nan nan nan nan nan nan nan nan nan nan nan nan nan nan nan nan nan nan nan nan nan nan nan nan nan nan nan nan nan nan nan nan nan nan nan nan nan nan nan nan nan
27 28 32 29 30 28 31 32 33 33 34 36 33 21 27 31 30 29 28 29 29 29 29 27 25 25 26 28 27 26 26 27 29 27 25 24 nan nan nan nan nan nan nan nan nan nan nan nan nan nan nan nan nan nan nan nan nan nan nan nan nan nan nan nan nan nan nan nan nan nan nan nan nan nan nan nan nan nan nan nan nan nan nan nan nan
26 29 36 38 37 36 37 38 36 37 37 38 34 30 34 35 33 33 34 33 35 34 33 32 30 30 32 30 29 26 25 24 25 25 27 27 nan nan 21 nan nan nan nan nan nan nan nan nan nan nan nan nan nan nan nan nan nan nan nan nan nan nan nan nan nan nan nan nan nan nan nan nan nan nan nan nan nan nan nan nan nan nan nan nan nan
28 32 33 35 37 37 40 40 39 41 39 38 40 40 37 35 33 32 33 35 36 37 36 35 35 36 37 34 30 29 28 27 29 29 31 nan nan nan nan nan nan nan nan nan nan nan nan nan nan nan nan nan nan nan nan nan nan nan nan nan nan nan nan nan nan nan nan nan nan nan nan nan nan nan nan nan nan nan nan nan nan nan nan nan nan
32 32 35 37 37 38 39 40 40 39 40 43 43 42 39 36 35 35 34 35 35 36 36 37 36 37 36 33 30 29 30 29 33 34 32 30 26 23 nan 18 nan nan nan nan nan nan nan nan nan nan nan nan nan nan nan nan nan nan nan nan nan nan nan nan nan nan nan nan nan nan nan nan nan nan nan nan nan nan nan nan nan nan nan nan nan
37 38 38 37 39 40 41 40 41 42 42 42 42 43 41 38 36 36 34 34 34 34 35 36 34 32 31 28 28 27 28 27 30 31 30 29 24 20 18 nan 18 nan nan nan nan nan nan nan nan nan nan nan nan nan nan nan nan nan nan nan nan nan nan nan nan nan nan nan nan nan nan nan nan nan nan nan nan nan nan nan nan nan nan nan nan
44 42 40 41 43 43 45 44 41 40 42 43 42 41 40 38 37 33 34 32 32 32 30 30 30 30 29 29 27 26 24 23 25 29 28 26 22 19 19 18 19 nan 20 nan nan nan nan nan nan nan nan nan nan nan nan nan nan nan nan nan nan nan nan nan nan nan nan nan nan nan nan nan nan nan nan nan nan nan nan nan nan nan nan nan nan
43 42 41 41 41 43 45 44 43 43 44 43 41 41 39 35 31 31 28 26 24 24 27 25 27 26 27 25 24 23 21 24 24 27 25 22 19 18 20 18 21 20 21 21 21 nan nan nan nan nan nan nan nan nan nan nan nan nan nan nan nan nan nan nan nan nan nan nan nan nan nan nan nan nan 27 nan nan nan nan nan nan nan nan nan nan
42 43 44 43 42 42 42 43 45 44 43 42 41 39 38 35 32 29 26 23 22 24 26 27 27 24 24 22 22 23 22 25 23 24 22 20 20 18 18 18 21 22 nan nan 21 nan nan nan nan nan nan nan nan nan nan nan nan nan nan nan 18 nan nan 19 nan nan nan nan nan nan nan nan nan 29 33 nan nan nan nan nan nan nan nan nan nan
nan 43 nan nan nan nan 40 42 nan nan 42 41 39 38 39 37 34 32 30 28 27 28 28 28 25 24 23 24 25 21 23 23 24 22 23 22 21 19 18 17 19 22 23 22 nan nan nan nan nan nan nan nan nan nan nan nan nan nan 26 24 23 22 22 22 23 23 25 nan nan 29 nan nan 28 nan nan 38 36 nan 31 nan nan nan nan nan nan
nan nan nan nan nan nan nan nan nan nan nan nan nan nan 40 39 37 37 34 34 31 30 28 25 25 24 24 24 24 20 21 20 22 21 21 21 20 20 19 20 19 20 22 22 21 21 nan 22 22 24 nan 29 31 32 nan nan nan nan 29 28 27 27 26 26 26 25 28 29 31 32 nan nan nan nan nan nan nan nan nan nan nan nan nan nan nan
nan nan nan nan nan nan nan nan nan nan nan nan nan nan nan nan nan nan 37 37 34 31 30 27 26 26 24 24 23 23 23 24 23 21 22 21 21 22 22 22 22 24 23 22 21 21 21 24 26 27 28 32 36 nan nan nan nan nan 32 32 32 31 30 30 30 30 31 37 33 31 31 nan nan nan nan nan nan nan nan nan nan nan nan nan nan
nan nan nan nan nan nan nan nan nan nan nan nan nan nan nan nan nan nan nan nan 36 34 33 31 29 28 26 28 26 25 26 25 24 23 24 23 23 24 24 24 24 26 25 26 25 27 30 30 32 34 39 nan nan 32 37 nan nan nan 29 30 32 33 33 33 34 36 37 42 39 35 33 33 37 nan nan nan nan nan nan nan nan nan nan nan nan
nan nan nan nan nan nan nan nan nan nan nan nan nan nan nan nan nan nan nan nan nan nan 37 34 nan nan 27 30 26 27 29 28 27 28 25 26 27 27 27 28 28 28 28 27 27 30 33 33 32 34 nan 40 nan 32 29 27 24 23 29 30 30 32 33 34 36 38 44 47 42 38 35 33 34 39 nan nan nan nan nan nan nan nan nan nan nan
nan nan nan nan nan nan nan nan nan nan nan nan nan nan nan nan nan nan nan nan nan nan nan nan nan nan nan nan nan 32 32 31 30 30 29 29 27 28 30 32 32 30 30 30 30 32 33 33 34 36 38 40 40 35 34 27 26 27 30 33 32 32 32 32 33 36 44 44 41 34 37 37 35 35 36 37 nan nan nan nan nan nan nan nan nan
nan nan nan nan nan nan nan nan nan nan nan nan nan nan nan nan nan nan nan nan nan nan nan nan nan nan nan nan nan nan nan nan 33 34 33 32 32 32 32 33 37 34 32 32 33 33 35 36 37 39 41 44 44 43 37 33 31 31 32 35 33 33 33 32 36 41 41 42 40 nan nan 40 39 nan nan nan 41 nan nan nan nan nan nan 37 35
nan 39 40 43 nan nan nan nan nan nan nan nan nan nan nan nan nan nan nan nan nan nan nan nan nan nan nan nan nan nan nan nan nan nan 38 37 37 36 35 36 37 38 39 38 38 38 38 38 39 42 44 46 46 44 41 38 35 32 36 39 37 35 37 39 42 41 41 46 43 44 44 45 46 43 nan nan nan nan nan nan nan nan 44 nan nan
nan nan nan nan nan nan nan nan nan nan nan nan nan nan nan nan nan nan nan nan nan nan nan nan nan nan nan nan nan nan nan nan nan nan nan nan 39 39 38 40 40 39 39 40 40 38 38 40 41 44 46 49 49 44 38 38 40 38 41 41 40 39 42 nan 44 nan 39 43 47 49 49 50 50 48 45 nan nan nan nan nan nan nan nan nan nan
nan nan nan nan nan nan nan nan nan nan nan nan nan nan nan nan nan nan nan nan nan nan nan nan nan nan nan nan nan nan nan nan nan nan nan nan nan 40 38 38 37 38 38 39 41 43 45 46 48 50 51 50 49 49 45 41 43 43 45 43 44 44 46 51 nan 44 45 48 nan 53 52 50 51 nan 52 nan 53 49 45 nan nan nan nan nan nan
nan nan nan nan nan nan nan nan nan nan nan nan nan nan nan nan nan nan nan nan nan nan nan nan nan nan nan nan nan nan nan nan nan nan nan nan nan nan nan nan 39 41 43 46 48 49 52 53 54 53 54 53 53 53 53 49 48 49 49 47 47 48 49 52 53 51 nan nan nan 51 nan 50 52 nan nan nan 55 49 46 nan nan nan nan nan nan
nan nan nan nan nan nan nan nan nan nan nan nan nan nan nan nan nan nan nan nan nan nan nan nan nan nan nan nan nan nan nan nan nan nan nan nan nan nan nan nan nan nan nan 52 53 53 53 53 55 58 54 53 54 55 55 53 53 54 54 51 51 50 53 56 57 nan 54 nan nan nan nan nan nan nan nan 54 51 48 nan nan nan nan nan nan nan
nan nan nan nan nan nan nan nan nan nan nan nan nan nan nan nan nan nan nan nan nan nan nan nan nan nan nan nan nan nan nan nan nan nan nan nan nan nan nan nan nan nan nan nan 55 54 nan 54 55 58 57 54 55 54 55 60 57 55 53 52 52 50 54 57 58 nan nan nan nan nan nan nan nan nan nan nan nan nan nan nan nan nan nan nan nan
nan nan nan nan nan nan nan nan nan nan nan nan nan nan nan nan nan nan nan nan nan nan nan nan nan nan nan nan nan nan nan nan nan nan nan nan nan nan nan nan nan nan nan nan nan nan nan nan 57 58 60 61 59 57 53 59 59 55 53 52 51 52 57 57 nan nan nan nan nan nan nan nan nan nan nan nan nan nan nan nan nan nan nan nan nan
nan nan nan nan nan nan nan nan nan nan nan nan nan nan nan nan nan nan nan nan nan nan nan nan nan nan nan nan nan nan nan nan nan nan nan nan nan nan nan nan nan nan nan nan nan nan nan nan 60 63 65 65 63 58 56 58 55 53 53 51 47 47 56 nan nan nan nan nan nan nan nan nan nan nan nan nan nan nan nan nan nan nan nan nan nan
nan nan nan nan nan nan nan nan nan nan nan nan nan nan nan nan nan nan nan nan nan nan nan nan nan nan nan nan nan nan nan nan nan nan nan nan nan nan nan nan nan nan nan nan nan nan nan nan nan 65 67 67 65 60 58 61 58 54 52 51 47 44 nan nan nan nan nan nan nan nan nan nan nan nan nan nan nan nan nan nan nan nan nan nan nan
nan nan nan nan nan nan nan nan nan nan nan nan nan nan nan nan nan nan nan nan nan nan nan nan nan nan nan nan nan nan nan nan nan nan nan nan nan nan nan nan nan nan nan nan nan nan nan nan nan 67 68 67 65 63 65 69 72 63 54 48 47 nan nan nan nan nan nan nan nan nan nan nan nan nan nan nan nan nan nan nan nan nan nan nan nan
nan nan nan nan nan nan nan nan nan nan nan nan nan nan nan nan nan nan nan nan nan nan nan nan nan nan nan nan nan nan nan nan nan nan nan nan nan nan nan nan nan nan nan nan nan nan nan nan nan 69 70 69 69 69 66 66 65 63 57 52 54 nan nan nan nan nan nan nan nan nan nan nan nan nan nan nan nan nan nan nan nan nan nan nan nan
nan nan nan nan nan nan nan nan nan nan nan nan nan nan nan nan nan nan nan nan nan nan nan nan nan nan nan nan nan nan nan nan nan nan nan nan nan nan nan nan nan nan nan nan nan nan nan nan nan 68 71 72 71 68 67 64 60 58 nan nan nan nan nan nan nan nan nan nan nan nan nan nan nan nan nan nan nan nan nan nan nan nan nan nan nan
nan nan nan nan nan nan nan nan nan nan nan nan nan nan nan nan nan nan nan nan nan nan nan nan nan nan nan nan nan nan nan nan nan nan nan nan nan nan nan nan nan nan nan nan nan nan nan nan nan 71 72 71 nan 67 nan nan nan nan nan nan nan nan nan nan nan nan nan nan nan nan nan nan nan nan nan nan nan nan nan nan nan nan nan nan nan
nan nan nan nan nan nan nan nan nan nan nan nan nan nan nan nan nan nan nan nan nan nan nan nan nan nan nan nan nan nan nan nan nan nan nan nan nan nan nan nan nan nan nan nan nan nan nan 66 68 71 72 nan nan nan nan nan nan nan nan nan nan nan nan nan nan nan nan nan nan nan nan nan nan nan nan nan nan nan nan nan nan nan nan nan nan
nan nan nan nan nan nan nan nan nan nan nan nan nan nan nan nan nan nan nan nan nan nan nan nan nan nan nan nan nan nan nan nan nan nan nan nan nan nan nan nan nan nan nan nan nan nan nan nan nan nan nan nan nan nan nan nan nan nan nan nan nan nan 65 63 62 64 61 nan nan nan nan nan nan nan nan nan nan nan nan nan nan nan nan nan nan
nan nan nan nan nan nan nan nan nan nan nan nan nan nan nan nan nan nan nan nan nan nan nan nan nan nan nan nan nan nan nan nan nan nan nan nan nan nan nan nan nan nan nan nan nan nan nan nan 58 nan nan nan nan nan nan nan nan nan nan nan nan 67 67 65 63 59 nan nan nan nan nan nan nan nan nan nan nan nan nan nan nan nan nan nan nan
Wind_Direction
285 289 290 288 281 275 277 276 275 277 279 277 283 281 278 277 280 283 280 277 275 274 269 269 272 266 258 274 287 284 272 269 275 284 284 281 300 305 305 304 304 305 300 289 294 297 296 297 303 308 309 313 311 308 313 317 319 312 302 291 277 274 272 268 269 267 270 274 306 354 269 271 274 280 283 290 286 290 290 289 286 280 280 268 264
278 283 293 295 284 283 269 275 276 278 272 277 281 280 276 275 274 275 272 269 270 268 263 259 259 263 266 278 275 270 270 275 273 264 264 269 269 281 293 297 301 300 300 303 298 301 297 298 309 314 306 305 305 309 310 312 317 309 303 294 282 274 271 270 275 279 275 295 298 291 270 283 285 278 273 281 287 267 257 255 260 264 273 279 284
286 295 301 292 284 281 270 272 279 277 277 280 277 275 272 268 267 266 265 265 264 261 261 250 244 248 259 260 269 269 271 272 274 278 283 288 287 289 294 301 304 300 302 303 306 309 303 304 307 313 319 316 314 310 311 311 306 304 297 289 283 284 285 283 284 283 283 285 280 283 272 271 285 280 267 254 259 284 290 285 274 268 273 263 275
288 293 286 280 277 274 274 278 275 270 272 271 266 268 262 260 261 262 262 261 259 254 249 246 241 245 235 244 260 264 261 265 274 281 285 299 307 300 288 287 297 304 312 306 301 300 288 297 308 313 323 329 324 322 319 310 307 302 295 289 283 285 290 286 279 262 265 279 273 266 265 263 278 274 267 263 272 286 271 281 287 294 278 273 277
274 270 266 275 283 279 282 274 271 266 266 255 254 253 252 259 258 260 260 260 257 254 252 252 251 245 249 251 257 260 261 270 280 285 293 293 290 292 292 301 297 290 287 294 302 309 315 316 312 304 311 318 326 323 322 314 308 299 299 291 291 289 284 277 273 264 258 258 269 270 265 260 263 272 275 261 269 272 279 281 282 289 292 293 303
266 245 258 290 295 278 272 267 263 255 248 246 243 240 237 238 253 254 258 260 260 257 256 258 262 265 242 248 253 259 269 280 279 281 288 305 292 287 297 289 286 300 299 279 283 294 303 311 313 310 307 304 314 310 316 315 315 304 299 294 296 292 275 275 279 282 268 264 263 265 266 269 279 268 261 269 267 265 263 282 299 299 288 296 305
267 263 270 301 284 270 250 242 246 245 253 260 243 252 251 237 241 257 262 265 265 262 261 261 267 264 240 242 249 265 278 272 274 279 276 nan 281 277 276 287 293 293 301 304 298 293 287 290 299 309 312 311 307 300 304 317 320 314 305 303 299 292 295 290 279 271 269 268 272 264 262 261 269 270 265 276 nan 261 266 nan nan nan nan nan nan
274 278 284 269 247 237 244 246 254 260 268 273 272 272 271 267 265 265 266 269 266 270 271 272 268 256 226 224 266 272 264 269 269 264 266 269 273 283 292 297 303 311 310 313 315 307 311 305 299 285 303 311 306 305 303 302 304 303 304 302 297 295 293 282 288 286 283 275 268 268 257 258 262 249 264 268 nan nan nan nan nan nan nan nan nan
266 270 247 243 249 250 250 256 263 270 272 279 279 282 278 272 274 276 277 273 271 273 275 269 266 254 232 186 218 254 262 267 269 270 271 272 279 295 296 288 280 285 303 310 305 308 307 301 293 289 281 283 289 284 283 288 289 293 296 296 292 283 279 285 287 286 279 277 275 268 260 258 260 259 262 261 270 nan nan nan nan nan nan nan nan
260 245 246 249 252 257 256 255 250 242 252 260 268 268 267 268 274 280 280 280 285 289 282 280 270 258 256 189 248 264 272 273 272 271 269 274 280 275 282 295 299 307 299 298 303 301 298 301 295 293 284 277 278 282 288 285 284 282 283 284 284 284 285 287 283 279 275 276 281 271 264 257 250 249 254 258 257 256 nan nan nan nan nan nan nan
254 247 245 246 252 256 260 255 251 248 248 252 261 281 287 284 282 284 294 295 302 303 296 289 268 258 282 310 281 280 278 273 273 274 273 271 280 295 304 308 307 300 305 307 308 307 301 295 301 296 288 281 283 285 283 285 285 284 276 276 277 278 274 272 270 271 274 273 271 280 284 277 275 277 289 274 267 269 nan nan nan nan nan nan nan
248 242 242 249 255 260 261 261 258 254 241 233 260 274 271 275 281 272 256 287 304 307 308 300 278 265 288 293 282 276 267 272 277 272 278 282 288 301 294 298 302 308 311 314 309 308 304 302 292 289 291 296 293 287 290 291 288 285 284 273 270 273 268 263 262 268 272 276 282 283 288 294 285 295 295 279 283 279 nan nan nan nan nan nan nan
251 247 240 252 260 260 267 273 270 268 274 304 317 303 294 286 287 283 285 291 302 312 315 311 301 295 297 306 303 287 271 270 273 272 279 281 286 290 299 298 304 311 314 314 326 325 319 311 302 298 296 290 292 nan nan 284 284 285 280 275 269 269 267 261 262 265 274 282 291 295 294 292 295 302 298 292 295 291 293 nan nan nan nan nan nan
263 262 254 251 256 259 269 276 276 274 287 315 323 307 300 301 296 295 299 308 310 313 311 310 311 305 303 301 299 297 280 272 271 273 277 281 280 282 293 298 299 302 307 317 334 328 316 305 301 299 303 nan nan nan 287 294 299 292 283 279 277 279 275 272 269 274 278 283 294 307 318 316 318 312 305 302 307 302 314 nan nan nan nan nan nan
256 259 254 252 254 256 259 274 286 288 293 305 303 289 292 296 299 298 300 307 308 308 307 307 307 305 297 292 293 292 287 280 279 278 279 276 276 281 278 285 290 292 297 310 317 326 327 323 315 302 nan nan nan nan 295 nan nan nan nan 285 283 282 281 274 268 264 263 266 275 283 nan 298 315 316 307 nan nan 323 313 nan nan nan nan nan nan
251 250 249 252 255 256 258 273 294 299 298 294 292 286 284 291 295 298 298 295 303 305 305 311 308 297 292 291 296 288 288 288 280 279 277 277 277 274 273 276 280 285 nan nan 324 318 317 nan nan nan nan nan nan nan nan nan nan nan nan nan nan 287 282 nan nan nan nan nan nan nan nan nan nan nan nan nan nan nan nan nan nan nan nan nan nan
242 245 253 261 261 269 284 287 291 289 286 290 283 263 284 292 292 295 295 295 297 299 299 303 307 303 291 282 281 276 283 288 286 279 276 276 274 271 271 271 276 nan nan nan nan nan nan nan nan nan nan nan nan nan nan nan nan nan nan nan nan nan nan nan nan nan nan nan nan nan nan nan nan nan nan nan nan nan nan 276 nan nan nan nan nan
247 248 255 261 260 267 260 250 258 275 270 275 277 272 275 287 289 292 295 293 295 299 300 300 302 303 298 285 275 268 269 282 283 280 272 272 273 267 264 269 276 nan nan nan nan nan nan nan nan nan nan nan nan nan nan nan nan nan nan nan nan nan nan nan nan nan nan nan nan nan nan nan nan nan nan nan nan nan nan nan nan nan nan nan nan
246 250 254 258 256 262 265 263 248 265 265 276 275 253 265 278 281 284 287 288 292 296 297 295 295 299 301 295 282 272 265 275 281 282 275 270 270 263 260 267 nan nan nan nan nan nan nan nan nan nan nan nan nan nan nan nan nan nan nan nan nan nan nan nan nan nan nan nan nan nan nan nan nan nan nan nan nan 263 nan nan nan nan nan nan nan
251 258 255 256 270 276 285 283 272 272 278 284 279 263 263 281 290 288 285 287 293 296 295 295 293 294 301 295 281 271 268 275 278 279 274 269 nan nan nan 271 nan nan nan nan nan nan nan nan nan nan nan nan nan nan nan nan nan nan nan nan nan nan nan nan nan nan nan nan nan nan nan nan nan nan nan nan nan nan nan nan nan nan nan nan nan
253 263 267 268 272 271 279 277 272 267 271 271 277 278 287 287 289 290 291 291 294 294 295 291 288 290 295 292 286 277 276 273 270 268 268 267 nan nan nan nan nan nan nan nan nan nan nan nan nan nan nan nan nan nan nan nan nan nan nan nan nan nan nan nan nan nan nan nan nan nan nan nan nan nan nan nan nan nan nan nan nan nan nan nan nan
245 256 264 265 268 269 267 265 265 266 271 286 290 288 282 292 296 299 300 299 297 296 292 287 280 285 290 288 282 277 278 276 268 268 268 268 nan nan 259 nan nan nan nan nan nan nan nan nan nan nan nan nan nan nan nan nan nan nan nan nan nan nan nan nan nan nan nan nan nan nan nan nan nan nan nan nan nan nan nan nan nan nan nan nan nan
256 259 261 263 268 271 274 276 274 278 283 284 281 281 285 284 286 291 292 294 297 296 293 289 285 284 284 281 279 275 269 262 268 270 271 nan nan nan nan nan nan nan nan nan nan nan nan nan nan nan nan nan nan nan nan nan nan nan nan nan nan nan nan nan nan nan nan nan nan nan nan nan nan nan nan nan nan nan nan nan nan nan nan nan nan
266 258 259 266 269 271 273 275 274 275 276 278 281 282 280 282 285 283 280 280 282 283 286 288 287 288 286 283 280 279 276 268 268 272 272 266 262 259 nan 263 nan nan nan nan nan nan nan nan nan nan nan nan nan nan nan nan nan nan nan nan nan nan nan nan nan nan nan nan nan nan nan nan nan nan nan nan nan nan nan nan nan nan nan nan nan
267 268 266 265 266 268 271 271 270 270 270 271 274 276 280 284 284 283 287 288 285 287 287 289 292 292 291 289 286 283 284 281 276 274 270 265 261 261 259 nan 265 nan nan nan nan nan nan nan nan nan nan nan nan nan nan nan nan nan nan nan nan nan nan nan nan nan nan nan nan nan nan nan nan nan nan nan nan nan nan nan nan nan nan nan nan
257 256 254 253 259 264 265 268 266 266 270 269 269 270 272 275 280 281 282 279 279 275 274 279 286 286 288 287 287 287 287 279 267 263 261 258 257 258 260 259 262 nan 262 nan nan nan nan nan nan nan nan nan nan nan nan nan nan nan nan nan nan nan nan nan nan nan nan nan nan nan nan nan nan nan nan nan nan nan nan nan nan nan nan nan nan
254 254 256 258 257 258 262 264 268 270 270 269 268 270 270 268 269 276 273 271 269 272 280 287 281 283 284 288 289 284 279 272 263 259 256 253 253 255 263 263 264 262 258 255 257 nan nan nan nan nan nan nan nan nan nan nan nan nan nan nan nan nan nan nan nan nan nan nan nan nan nan nan nan nan 274 nan nan nan nan nan nan nan nan nan nan
250 251 253 255 258 263 265 264 265 266 267 269 270 271 273 270 267 270 268 264 265 271 274 274 277 278 282 285 284 283 279 272 268 268 267 267 262 258 259 262 265 265 nan nan 259 nan nan nan nan nan nan nan nan nan nan nan nan nan nan nan 280 nan nan 290 nan nan nan nan nan nan nan nan nan 283 277 nan nan nan nan nan nan nan nan nan nan
nan 253 nan nan nan nan 256 266 nan nan 272 276 276 273 273 274 275 272 268 266 268 269 270 269 264 264 266 267 264 260 259 264 264 265 265 267 268 267 265 262 264 266 261 262 nan nan nan nan nan nan nan nan nan nan nan nan nan nan 284 287 287 288 287 287 289 291 290 nan nan 290 nan nan 285 nan nan 273 270 nan 272 nan nan nan nan nan nan
nan nan nan nan nan nan nan nan nan nan nan nan nan nan 271 272 272 271 273 273 273 275 271 263 262 261 262 264 271 272 274 273 274 272 273 273 269 267 266 260 256 263 268 266 262 264 nan 267 264 264 nan 268 269 269 nan nan nan nan 287 288 290 292 291 290 291 289 288 287 281 284 nan nan nan nan nan nan nan nan nan nan nan nan nan nan nan
nan nan nan nan nan nan nan nan nan nan nan nan nan nan nan nan nan nan 266 272 272 268 269 269 265 265 261 258 258 259 260 265 265 264 262 267 267 263 260 260 258 254 254 255 260 263 265 265 266 265 267 268 263 nan nan nan nan nan 289 287 288 290 291 292 294 293 290 282 281 278 279 nan nan nan nan nan nan nan nan nan nan nan nan nan nan
nan nan nan nan nan nan nan nan nan nan nan nan nan nan nan nan nan nan nan nan 273 269 266 266 268 265 264 263 253 254 258 261 263 265 269 266 265 267 267 266 265 263 260 262 262 262 261 262 263 263 265 nan nan 274 269 nan nan nan 277 280 285 288 290 290 291 292 291 287 286 282 276 279 283 nan nan nan nan nan nan nan nan nan nan nan nan
nan nan nan nan nan nan nan nan nan nan nan nan nan nan nan nan nan nan nan nan nan nan 276 277 nan nan 268 266 263 261 261 259 260 260 260 264 266 265 266 267 266 267 269 269 265 265 266 269 272 273 nan 277 nan 282 283 283 270 266 279 279 284 288 288 291 289 290 286 285 281 278 278 276 279 283 nan nan nan nan nan nan nan nan nan nan nan
nan nan nan nan nan nan nan nan nan nan nan nan nan nan nan nan nan nan nan nan nan nan nan nan nan nan nan nan nan 260 264 265 265 264 261 258 261 265 267 267 265 265 269 271 272 271 273 275 275 276 278 283 284 287 293 291 290 286 283 278 279 282 286 290 291 283 278 284 282 288 286 285 282 284 283 284 nan nan nan nan nan nan nan nan nan
nan nan nan nan nan nan nan nan nan nan nan nan nan nan nan nan nan nan nan nan nan nan nan nan nan nan nan nan nan nan nan nan 257 261 263 262 262 261 264 268 274 275 273 274 273 275 278 279 278 279 282 285 287 292 293 294 294 298 292 281 279 277 277 276 270 268 274 286 294 nan nan 291 291 nan nan nan 281 nan nan nan nan nan nan 274 269
nan 248 247 244 nan nan nan nan nan nan nan nan nan nan nan nan nan nan nan nan nan nan nan nan nan nan nan nan nan nan nan nan nan nan 254 256 261 264 264 266 268 273 276 275 273 273 276 278 278 279 281 283 283 288 290 293 292 290 291 286 285 284 279 275 276 276 280 285 288 289 290 290 291 288 nan nan nan nan nan nan nan nan 276 nan nan
nan nan nan nan nan nan nan nan nan nan nan nan nan nan nan nan nan nan nan nan nan nan nan nan nan nan nan nan nan nan nan nan nan nan nan nan 256 259 262 268 270 271 272 275 276 276 276 277 278 279 282 282 284 288 291 291 290 291 286 284 285 284 282 nan 279 nan 274 275 282 287 288 288 288 287 291 nan nan nan nan nan nan nan nan nan nan
nan nan nan nan nan nan nan nan nan nan nan nan nan nan nan nan nan nan nan nan nan nan nan nan nan nan nan nan nan nan nan nan nan nan nan nan nan 256 256 260 265 269 272 273 275 278 279 280 283 284 284 284 284 291 298 295 293 294 290 285 283 282 281 281 nan 276 274 277 nan 277 282 284 287 nan 290 nan 292 285 281 nan nan nan nan nan nan
nan nan nan nan nan nan nan nan nan nan nan nan nan nan nan nan nan nan nan nan nan nan nan nan nan nan nan nan nan nan nan nan nan nan nan nan nan nan nan nan 262 266 271 274 276 278 280 282 283 283 285 284 281 284 293 295 295 295 291 285 285 283 283 284 283 282 nan nan nan 271 nan 284 283 nan nan nan 284 279 274 nan nan nan nan nan nan
nan nan nan nan nan nan nan nan nan nan nan nan nan nan nan nan nan nan nan nan nan nan nan nan nan nan nan nan nan nan nan nan nan nan nan nan nan nan nan nan nan nan nan 275 277 279 279 279 279 282 283 283 283 282 288 293 293 293 294 290 286 287 284 285 283 nan 285 nan nan nan nan nan nan nan nan 277 273 271 nan nan nan nan nan nan nan
nan nan nan nan nan nan nan nan nan nan nan nan nan nan nan nan nan nan nan nan nan nan nan nan nan nan nan nan nan nan nan nan nan nan nan nan nan nan nan nan nan nan nan nan 277 275 nan 275 277 278 281 281 282 283 284 290 291 293 294 292 287 286 284 284 284 nan nan nan nan nan nan nan nan nan nan nan nan nan nan nan nan nan nan nan nan
nan nan nan nan nan nan nan nan nan nan nan nan nan nan nan nan nan nan nan nan nan nan nan nan nan nan nan nan nan nan nan nan nan nan nan nan nan nan nan nan nan nan nan nan nan nan nan nan 276 277 278 280 282 287 282 285 290 291 292 294 287 283 283 283 nan nan nan nan nan nan nan nan nan nan nan nan nan nan nan nan nan nan nan nan nan
nan nan nan nan nan nan nan nan nan nan nan nan nan nan nan nan nan nan nan nan nan nan nan nan nan nan nan nan nan nan nan nan nan nan nan nan nan nan nan nan nan nan nan nan nan nan nan nan 276 277 275 276 274 277 279 281 286 290 292 292 289 281 288 nan nan nan nan nan nan nan nan nan nan nan nan nan nan nan nan nan nan nan nan nan nan
nan nan nan nan nan nan nan nan nan nan nan nan nan nan nan nan nan nan nan nan nan nan nan nan nan nan nan nan nan nan nan nan nan nan nan nan nan nan nan nan nan nan nan nan nan nan nan nan nan 278 277 278 279 280 282 282 284 287 285 286 289 287 nan nan nan nan nan nan nan nan nan nan nan nan nan nan nan nan nan nan nan nan nan nan nan
nan nan nan nan nan nan nan nan nan nan nan nan nan nan nan nan nan nan nan nan nan nan nan nan nan nan nan nan nan nan nan nan nan nan nan nan nan nan nan nan nan nan nan nan nan nan nan nan nan 279 278 278 278 278 278 278 279 276 278 283 283 nan nan nan nan nan nan nan nan nan nan nan nan nan nan nan nan nan nan nan nan nan nan nan nan
nan nan nan nan nan nan nan nan nan nan nan nan nan nan nan nan nan nan nan nan nan nan nan nan nan nan nan nan nan nan nan nan nan nan nan nan nan nan nan nan nan nan nan nan nan nan nan nan nan 279 278 279 278 277 277 276 279 281 279 281 281 nan nan nan nan nan nan nan nan nan nan nan nan nan nan nan nan nan nan nan nan nan nan nan nan
nan nan nan nan nan nan nan nan nan nan nan nan nan nan nan nan nan nan nan nan nan nan nan nan nan nan nan nan nan nan nan nan nan nan nan nan nan nan nan nan nan nan nan nan nan nan nan nan nan 277 276 276 276 276 277 278 279 278 nan nan nan nan nan nan nan nan nan nan nan nan nan nan nan nan nan nan nan nan nan nan nan nan nan nan nan
nan nan nan nan nan nan nan nan nan nan nan nan nan nan nan nan nan nan nan nan nan nan nan nan nan nan nan nan nan nan nan nan nan nan nan nan nan nan nan nan nan nan nan nan nan nan nan nan nan 274 275 275 nan 275 nan nan nan nan nan nan nan nan nan nan nan nan nan nan nan nan nan nan nan nan nan nan nan nan nan nan nan nan nan nan nan
nan nan nan nan nan nan nan nan nan nan nan nan nan nan nan nan nan nan nan nan nan nan nan nan nan nan nan nan nan nan nan nan nan nan nan nan nan nan nan nan nan nan nan nan nan nan nan 265 270 271 271 nan nan nan nan nan nan nan nan nan nan nan nan nan nan nan nan nan nan nan nan nan nan nan nan nan nan nan nan nan nan nan nan nan nan
nan nan nan nan nan nan nan nan nan nan nan nan nan nan nan nan nan nan nan nan nan nan nan nan nan nan nan nan nan nan nan nan nan nan nan nan nan nan nan nan nan nan nan nan nan nan nan nan nan nan nan nan nan nan nan nan nan nan nan nan nan nan 264 263 267 270 271 nan nan nan nan nan nan nan nan nan nan nan nan nan nan nan nan nan nan
nan nan nan nan nan nan nan nan nan nan nan nan nan nan nan nan nan nan nan nan nan nan nan nan nan nan nan nan nan nan nan nan nan nan nan nan nan nan nan nan nan nan nan nan nan nan nan nan 264 nan nan nan nan nan nan nan nan nan nan nan nan 265 267 267 267 265 nan nan nan nan nan nan nan nan nan nan nan nan nan nan nan nan nan nan nan